Location: Casco Volunteer Fire Department
(44.5576°N, 87.6146°W)
Time: 05:09:32
(UTC+00:00)

BlueWalker 3 - Pass Details

Date: 16 March 2026
Orbit: 449 x 457 km, 53.2° (Epoch: 15 April)

Event Time Altitude Azimuth Distance (km) Brightness Sun altitude
Exits shadow 09:22:34 25° 68° (ENE) 950 3.9 -28.0°
Drops below altitude 10° 09:24:32 10° 91° (E) 1,596 5.2 -27.7°
Sets 09:26:47 0° 100° (E) 2,467 6.2 -27.4°
